Weather in Pershino

Russia / Tyumen Oblast     56°24′34″N   66°46′26″E
temp.,
°C
wind,
m/s
gust,
m/s
humid.,
%
clouds,
%
prec.,
mm/h
press.,
hPa
HPBL,
m
18 may, tue
tue1823:00+17ne3669100 0.3 1014160
02:00+17w226999 0.3 101224
05:00+16wsw4977100 0.3 1012246
08:00+18w51173100 0.6 1013742
11:00+24nnw464740 0.6 10121383
14:00+24nnw684087 0.0 10122489
17:00+20nne785828 2.3 10131219
20:00+15nne7106772 0.0 1016894
19 may, wed
wed1923:00+13nne5107499 0.1 1018879
02:00+12n511736 0.0 1020598
05:00+9n49770 0.0 1021275
08:00+13nne575014 0.0 1022777
11:00+16nne563896 0.0 10231708
14:00+19n56355 0.0 10221944
17:00+18n67345 0.0 10221951
20:00+14nne3750100 0.0 1023140
20 may, thu
thu2023:00+11nne385692 0.0 1024154
02:00+9ene356285 0.0 102573
05:00+7ese126160 0.0 102611
08:00+13wsw124498 0.0 1026424
11:00+18w343851 0.0 10241185
14:00+21w56345 0.0 10221663
17:00+23w58315 0.0 10212010
20:00+19wsw35525 0.0 102074
21 may, fri
fri2123:00+15wsw411585 0.0 1021170
02:00+14w411615 0.0 1021183
05:00+13w38635 0.0 1022129
08:00+20wnw47455 0.0 1022339
11:00+25w45335 0.0 1021989
14:00+28wsw44295 0.0 10212099
17:00+27w44295 0.0 10212072
20:00+22sw33495 0.0 102131
22 may, sat
sat2223:00+18wsw34514 0.0 102250
02:00+16sw34520 0.0 102246
05:00+15sw34590 0.0 102259
08:00+22sw47430 0.0 1022356
11:00+26sw69290 0.0 10212078
14:00+28wsw79254 0.0 10202749
17:00+28wsw573135 0.0 10192720
20:00+23sw365045 0.0 1019120